OE3APM-13 Weather Reports


time (UTC)temp
C
wind
direction
speed
KPH
gust
KPH
rain 1hr
cm
rain 24hr
cm
rain mn
cm
humidity
%
barometer
mb
20260507065613 12 268 11.3 29.0 0.00 0.00 0.00 74 1011.6
20260507065105 11 246 11.3 30.6 0.00 0.00 0.00 75 1011.6
20260507064603 11 249 11.3 30.6 0.00 0.00 0.00 74 1011.6
20260507064104 11 258 11.3 25.7 0.00 0.00 0.00 74 1011.6
20260507063604 11 312 9.7 25.7 0.00 0.00 0.00 74 1011.6
20260507063103 11 209 11.3 27.4 0.00 0.00 0.00 73 1011.5
20260507062602 11 217 12.9 27.4 0.00 0.00 0.00 73 1011.4
20260507062101 12 254 12.9 25.7 0.00 0.00 0.00 73 1011.3
20260507061601 12 200 14.5 25.7 0.00 0.00 0.00 72 1011.3
20260507061109 12 269 14.5 25.7 0.00 0.00 0.00 72 1011.4
20260507060601 12 239 14.5 27.4 0.00 0.00 0.00 73 1011.4
20260507055601 11 281 12.9 27.4 0.00 0.00 0.00 76 1011.3
20260507055102 11 234 12.9 27.4 0.00 0.00 0.00 76 1011.1
20260507054602 11 215 11.3 22.5 0.00 0.00 0.00 76 1011.2
20260507054101 11 238 9.7 22.5 0.00 0.00 0.00 78 1011.1
20260507053602 11 227 8.0 22.5 0.00 0.00 0.00 77 1011.0
20260507053101 11 242 8.0 16.1 0.00 0.00 0.00 78 1011.1
20260507052603 11 229 11.3 22.5 0.00 0.00 0.00 78 1011.0
20260507052055 11 264 12.9 22.5 0.00 0.00 0.00 78 1010.8
20260507051553 11 202 12.9 24.1 0.00 0.00 0.00 79 1010.8
20260507051042 10 213 11.3 24.1 0.00 0.00 0.00 80 1010.7
20260507050537 10 221 9.7 22.5 0.00 0.00 0.00 79 1010.7
20260507050036 10 215 8.0 16.1 0.00 0.00 0.00 81 1010.7
20260507045535 10 242 8.0 17.7 0.00 0.00 0.00 81 1010.6
20260507045037 10 232 8.0 17.7 0.00 0.00 0.00 82 1010.6
20260507044535 10 244 6.4 12.9 0.00 0.00 0.00 82 1010.5
20260507044035 10 284 8.0 19.3 0.00 0.00 0.00 83 1010.4
20260507043533 10 230 9.7 19.3 0.00 0.00 0.00 83 1010.4
20260507043033 10 244 9.7 19.3 0.00 0.00 0.00 83 1010.3
20260507042533 10 213 9.7 16.1 0.00 0.00 0.00 83 1010.2
20260507042034 10 236 8.0 14.5 0.00 0.00 0.00 83 1010.2
20260507041533 10 229 6.4 14.5 0.00 0.00 0.00 83 1010.2
20260507041036 10 257 4.8 11.3 0.00 0.00 0.00 83 1010.2
20260507040533 10 257 6.4 16.1 0.00 0.00 0.00 83 1010.1
20260507040034 10 250 8.0 17.7 0.00 0.00 0.00 83 1010.0
20260507035531 10 244 8.0 17.7 0.00 0.00 0.00 83 1009.8
20260507035032 10 243 6.4 16.1 0.00 0.00 0.00 83 1009.7
20260507034533 10 241 6.4 14.5 0.00 0.00 0.00 83 1009.7
20260507034029 10 261 4.8 11.3 0.00 0.00 0.00 82 1009.7
20260507033529 10 255 6.4 14.5 0.00 0.00 0.00 82 1009.7
20260507033023 11 230 8.0 16.1 0.00 0.00 0.00 82 1009.6
20260507032517 11 218 8.0 16.1 0.00 0.00 0.00 82 1009.7
20260507032008 11 257 8.0 16.1 0.00 0.00 0.00 82 1009.7
20260507031505 11 276 8.0 16.1 0.00 0.00 0.00 82 1009.7
20260507031005 11 221 8.0 19.3 0.00 0.00 0.00 82 1009.5
20260507030512 11 281 8.0 19.3 0.00 0.00 0.00 82 1009.5
20260507030003 11 225 6.4 12.9 0.00 0.00 0.00 82 1009.5
20260507025503 11 234 6.4 12.9 0.00 0.00 0.00 82 1009.5
20260507025003 11 242 6.4 12.9 0.00 0.00 0.00 82 1009.4
20260507024503 11 262 8.0 22.5 0.00 0.00 0.00 82 1009.4
20260507024005 11 257 9.7 22.5 0.00 0.00 0.00 82 1009.4
20260507023505 11 209 9.7 17.7 0.00 0.00 0.00 82 1009.4
20260507023003 11 244 9.7 24.1 0.00 0.00 0.00 82 1009.3
20260507022504 11 218 9.7 24.1 0.00 0.00 0.00 82 1009.2
20260507022005 11 223 9.7 17.7 0.00 0.00 0.00 82 1009.2
20260507021504 11 273 9.7 19.3 0.00 0.00 0.00 82 1009.2
20260507021003 11 261 9.7 19.3 0.00 0.00 0.00 82 1009.2
20260507020458 11 253 8.0 20.9 0.00 0.00 0.00 82 1009.2
20260507015957 11 255 6.4 20.9 0.00 0.00 0.00 83 1009.0
20260507015456 11 267 6.4 14.5 0.00 0.00 0.00 83 1009.0
20260507014956 11 281 8.0 16.1 0.00 0.00 0.00 83 1009.0
20260507014456 11 252 9.7 16.1 0.00 0.00 0.00 83 1008.9
20260507013957 11 259 8.0 16.1 0.00 0.00 0.00 82 1008.9
20260507013456 11 256 8.0 16.1 0.00 0.00 0.00 83 1008.9
20260507012454 11 261 8.0 16.1 0.00 0.00 0.00 82 1008.7
20260507011955 11 255 9.7 20.9 0.00 0.00 0.00 82 1008.8
20260507011456 11 272 11.3 22.5 0.00 0.00 0.00 82 1008.8
20260507010955 11 234 9.7 22.5 0.00 0.00 0.00 83 1008.8
20260507010457 11 218 9.7 22.5 0.00 0.00 0.00 82 1008.7
20260507005951 12 244 11.3 22.5 0.00 0.00 0.00 83 1008.7
20260507005450 12 244 9.7 22.5 0.00 0.00 0.00 83 1008.6
20260507004950 12 251 8.0 20.9 0.00 0.00 0.00 83 1008.7
20260507004450 12 243 8.0 20.9 0.00 0.00 0.00 84 1008.6
20260507003950 12 235 6.4 14.5 0.00 0.00 0.00 84 1008.6
20260507003449 12 240 8.0 16.1 0.00 0.00 0.00 83 1008.5
20260507002949 12 260 9.7 17.7 0.00 0.00 0.00 83 1008.5
20260507002448 12 259 9.7 20.9 0.00 0.00 0.00 84 1008.6
20260507001947 12 227 9.7 20.9 0.00 0.00 0.00 84 1008.5
20260507001447 12 254 8.0 16.1 0.00 0.00 0.00 84 1008.4
20260507000945 12 237 6.4 12.9 0.00 0.00 0.00 84 1008.3
20260507000446 12 229 6.4 12.9 0.00 0.00 0.00 84 1008.3
20260506235947 12 248 4.8 12.9 0.00 0.00 0.00 84 1008.3
20260506235441 12 233 4.8 12.9 0.00 0.00 0.00 83 1008.3
20260506234941 12 263 6.4 14.5 0.00 0.00 0.00 83 1008.3
20260506234442 12 259 6.4 14.5 0.00 0.00 0.00 83 1008.2
20260506233941 12 209 6.4 16.1 0.00 0.00 0.00 83 1008.2
20260506233442 12 244 8.0 16.1 0.00 0.00 0.00 83 1008.2
20260506232940 12 216 8.0 16.1 0.00 0.00 0.00 82 1008.0
20260506232441 12 246 6.4 17.7 0.00 0.00 0.00 82 1008.0
20260506231943 12 268 8.0 17.7 0.00 0.00 0.00 82 1007.8
20260506231441 12 304 8.0 16.1 0.00 0.00 0.00 82 1007.9
20260506230941 12 315 9.7 17.7 0.00 0.00 0.00 82 1008.0
20260506230441 12 252 11.3 19.3 0.00 0.00 0.00 82 1008.0
20260506225941 12 258 9.7 20.9 0.00 0.00 0.00 82 1007.9
20260506225441 12 258 9.7 20.9 0.00 0.00 0.00 82 1007.9
20260506224940 12 235 9.7 17.7 0.00 0.00 0.00 81 1007.9
20260506224441 12 218 9.7 17.7 0.00 0.00 0.00 81 1007.9
20260506223941 12 242 9.7 19.3 0.00 0.00 0.00 81 1007.8
20260506223442 12 265 8.0 19.3 0.00 0.00 0.00 81 1007.8
20260506222941 12 270 8.0 24.1 0.00 0.00 0.00 81 1007.8
20260506222441 12 269 9.7 24.1 0.00 0.00 0.00 81 1007.8
20260506221935 12 265 8.0 16.1 0.00 0.00 0.00 81 1007.7
20260506221432 12 254 8.0 19.3 0.00 0.00 0.00 82 1007.6
20260506220935 12 252 8.0 19.3 0.00 0.00 0.00 82 1007.4
20260506220433 12 302 8.0 19.3 0.00 0.00 0.00 82 1007.4
20260506215933 12 281 9.7 17.7 0.00 0.00 0.00 82 1007.0
20260506215434 13 280 8.0 17.7 0.00 0.00 0.00 82 1006.8
20260506214932 13 234 9.7 17.7 0.00 0.00 0.00 82 1006.7
20260506214432 13 253 9.7 19.3 0.00 0.00 0.00 82 1006.6
20260506213933 13 267 8.0 19.3 0.00 0.00 0.00 82 1006.5
20260506213432 13 232 6.4 12.9 0.00 0.00 0.00 81 1006.5
20260506212933 13 252 6.4 12.9 0.00 0.00 0.00 81 1006.3
20260506212432 13 269 6.4 16.1 0.00 0.00 0.00 80 1006.1
20260506211932 13 268 6.4 16.1 0.00 0.00 0.00 80 1006.1
20260506211435 13 337 6.4 12.9 0.00 0.00 0.00 79 1006.0
20260506210934 13 266 6.4 12.9 0.00 0.00 0.00 78 1006.1
20260506210431 14 281 8.0 17.7 0.00 0.00 0.00 78 1006.1
20260506205932 14 281 8.0 17.7 0.00 0.00 0.00 78 1005.9
20260506205431 14 321 8.0 19.3 0.00 0.00 0.00 77 1005.9
20260506204934 14 281 8.0 19.3 0.00 0.00 0.00 77 1006.0
20260506204429 14 288 11.3 22.5 0.00 0.00 0.00 77 1006.1
20260506203930 14 323 14.5 32.2 0.00 0.00 0.00 76 1006.1
20260506203430 14 296 14.5 32.2 0.00 0.00 0.00 76 1006.1
20260506202929 14 282 11.3 32.2 0.00 0.00 0.00 75 1006.1
20260506202429 15 277 11.3 30.6 0.00 0.00 0.00 75 1006.0
20260506201930 15 302 12.9 27.4 0.00 0.00 0.00 75 1006.1
20260506201430 15 282 14.5 27.4 0.00 0.00 0.00 74 1006.0
20260506200932 15 287 12.9 32.2 0.00 0.00 0.00 73 1006.0
20260506200426 15 266 12.9 32.2 0.00 0.00 0.00 72 1006.0
20260506195925 15 283 17.7 35.4 0.00 0.00 0.00 71 1005.8
20260506195425 16 307 22.5 43.5 0.00 0.00 0.00 69 1005.7
20260506194924 16 270 20.9 43.5 0.00 0.00 0.00 68 1005.6
20260506194423 17 309 17.7 35.4 0.00 0.00 0.00 65 1005.5
20260506193933 17 227 14.5 32.2 0.00 0.00 0.00 60 1005.5
20260506193424 18 284 11.3 32.2 0.00 0.00 0.00 56 1005.2
20260506192924 17 202 8.0 16.1 0.00 0.00 0.00 49 1004.5
20260506192424 17 191 8.0 16.1 0.00 0.00 0.00 51 1004.3
20260506191919 17 197 8.0 16.1 0.00 0.00 0.00 52 1004.2
20260506191417 17 190 8.0 17.7 0.00 0.00 0.00 53 1004.2
20260506190913 17 195 6.4 17.7 0.00 0.00 0.00 55 1004.1
20260506190410 17 190 4.8 11.3 0.00 0.00 0.00 53 1003.9
20260506185912 17 209 3.2 11.3 0.00 0.00 0.00 54 1004.0
20260506185410 17 196 1.6 8.0 0.00 0.00 0.00 53 1003.8
20260506184910 18 195 1.6 6.4 0.00 0.00 0.00 52 1003.7
20260506184410 18 195 3.2 6.4 0.00 0.00 0.00 51 1003.5
20260506183910 18 196 3.2 4.8 0.00 0.00 0.00 50 1003.3
20260506183411 19 196 3.2 8.0 0.00 0.00 0.00 50 1003.2
20260506182909 19 197 1.6 8.0 0.00 0.00 0.00 49 1003.0
20260506182408 20 182 1.6 4.8 0.00 0.00 0.00 49 1002.9
20260506181907 20 156 3.2 4.8 0.00 0.00 0.00 47 1002.8
20260506181404 20 154 3.2 6.4 0.00 0.00 0.00 46 1002.7
20260506180905 20 148 4.8 9.7 0.00 0.00 0.00 45 1002.7
20260506180404 20 162 6.4 11.3 0.00 0.00 0.00 45 1002.6
20260506175904 21 140 6.4 11.3 0.00 0.00 0.00 44 1002.7
20260506175403 21 132 4.8 8.0 0.00 0.00 0.00 44 1002.8
20260506174901 21 151 4.8 9.7 0.00 0.00 0.00 44 1002.8
20260506174400 21 143 3.2 9.7 0.00 0.00 0.00 43 1002.8
20260506173901 21 156 4.8 8.0 0.00 0.00 0.00 43 1002.8
20260506173356 22 177 6.4 9.7 0.00 0.00 0.00 41 1002.8
20260506172855 22 165 6.4 14.5 0.00 0.00 0.00 41 1002.7
20260506172352 22 160 6.4 16.1 0.00 0.00 0.00 40 1002.7
20260506171852 22 170 6.4 16.1 0.00 0.00 0.00 40 1002.7
20260506171350 23 130 6.4 12.9 0.00 0.00 0.00 40 1002.5
20260506170850 23 127 6.4 16.1 0.00 0.00 0.00 39 1002.6
20260506170349 23 167 6.4 16.1 0.00 0.00 0.00 38 1002.7
20260506165846 23 113 8.0 16.1 0.00 0.00 0.00 39 1002.8
20260506165346 23 140 6.4 16.1 0.00 0.00 0.00 39 1002.9
20260506164846 23 154 6.4 14.5 0.00 0.00 0.00 39 1002.9
20260506164345 23 96 4.8 14.5 0.00 0.00 0.00 40 1002.9
20260506163844 23 130 3.2 9.7 0.00 0.00 0.00 41 1002.9
20260506163340 23 78 4.8 14.5 0.00 0.00 0.00 42 1002.9
20260506162838 23 150 8.0 14.5 0.00 0.00 0.00 43 1003.0
20260506162335 23 144 8.0 17.7 0.00 0.00 0.00 43 1003.0
20260506161837 22 151 8.0 17.7 0.00 0.00 0.00 42 1003.1
20260506161336 22 101 9.7 17.7 0.00 0.00 0.00 43 1003.2
20260506160831 22 157 9.7 17.7 0.00 0.00 0.00 43 1003.2
20260506160335 22 128 9.7 17.7 0.00 0.00 0.00 43 1003.2
20260506155823 23 155 11.3 19.3 0.00 0.00 0.00 44 1003.3
20260506155323 23 121 11.3 19.3 0.00 0.00 0.00 43 1003.4
20260506154817 22 148 9.7 19.3 0.00 0.00 0.00 43 1003.4
20260506154317 22 90 9.7 19.3 0.00 0.00 0.00 44 1003.4
20260506153816 22 127 8.0 19.3 0.00 0.00 0.00 44 1003.7
20260506153323 22 91 8.0 22.5 0.00 0.00 0.00 45 1003.8
20260506152815 22 132 9.7 22.5 0.00 0.00 0.00 46 1003.9
20260506152312 22 171 9.7 19.3 0.00 0.00 0.00 45 1003.9
20260506151810 22 119 11.3 22.5 0.00 0.00 0.00 45 1003.8
20260506151310 22 126 9.7 22.5 0.00 0.00 0.00 44 1003.8
20260506150809 22 136 6.4 14.5 0.00 0.00 0.00 46 1003.9
20260506150308 22 173 6.4 16.1 0.00 0.00 0.00 45 1003.9
20260506145808 22 136 6.4 20.9 0.00 0.00 0.00 45 1003.9
20260506145306 22 108 6.4 20.9 0.00 0.00 0.00 48 1004.0
20260506144803 21 147 9.7 20.9 0.00 0.00 0.00 47 1004.1
20260506144301 21 92 12.9 22.5 0.00 0.00 0.00 46 1004.3
20260506143801 21 112 14.5 29.0 0.00 0.00 0.00 46 1004.3
20260506143301 22 161 14.5 29.0 0.00 0.00 0.00 46 1004.4
20260506142805 22 135 12.9 29.0 0.00 0.00 0.00 45 1004.4
20260506142257 22 122 14.5 27.4 0.00 0.00 0.00 45 1004.5
20260506141748 22 121 12.9 29.0 0.00 0.00 0.00 45 1004.4
20260506141244 22 112 12.9 29.0 0.00 0.00 0.00 46 1004.4
20260506140733 22 120 12.9 27.4 0.00 0.00 0.00 46 1004.5
20260506140233 22 123 11.3 25.7 0.00 0.00 0.00 46 1004.5
20260506135723 22 123 11.3 25.7 0.00 0.00 0.00 46 1004.6
20260506135222 22 140 8.0 19.3 0.00 0.00 0.00 46 1004.7
20260506134711 22 49 11.3 22.5 0.00 0.00 0.00 44 1004.8
20260506134202 23 96 11.3 22.5 0.00 0.00 0.00 44 1004.8
20260506133658 23 176 9.7 17.7 0.00 0.00 0.00 45 1004.8
20260506133150 22 109 12.9 25.7 0.00 0.00 0.00 44 1004.8
20260506132653 22 163 14.5 25.7 0.00 0.00 0.00 43 1004.9
20260506132144 23 164 12.9 25.7 0.00 0.00 0.00 44 1004.9
20260506131641 23 146 12.9 24.1 0.00 0.00 0.00 42 1005.0
20260506131139 22 126 14.5 25.7 0.00 0.00 0.00 46 1005.0
20260506130642 22 112 11.3 25.7 0.00 0.00 0.00 46 1005.1
20260506130149 22 145 9.7 24.1 0.00 0.00 0.00 46 1005.2
20260506125636 22 116 11.3 24.1 0.00 0.00 0.00 46 1005.3
20260506125136 22 153 11.3 20.9 0.00 0.00 0.00 46 1005.3
20260506124634 22 203 11.3 22.5 0.00 0.00 0.00 45 1005.5
20260506124134 22 147 11.3 22.5 0.00 0.00 0.00 43 1005.6
20260506123633 22 159 11.3 24.1 0.00 0.00 0.00 44 1005.6
20260506123144 22 148 9.7 24.1 0.00 0.00 0.00 44 1005.7
20260506122632 23 59 11.3 20.9 0.00 0.00 0.00 43 1005.7
20260506122132 23 125 14.5 27.4 0.00 0.00 0.00 43 1005.8
20260506121632 23 115 14.5 27.4 0.00 0.00 0.00 44 1005.7
20260506121132 23 154 14.5 27.4 0.00 0.00 0.00 42 1005.7
20260506120631 22 92 14.5 27.4 0.00 0.00 0.00 44 1005.7
20260506120130 22 117 12.9 24.1 0.00 0.00 0.00 45 1005.9
20260506115634 21 128 12.9 27.4 0.00 0.00 0.00 45 1006.0
20260506115130 21 117 14.5 27.4 0.00 0.00 0.00 45 1006.0
20260506114629 21 162 11.3 19.3 0.00 0.00 0.00 42 1006.1
20260506114128 21 193 8.0 16.1 0.00 0.00 0.00 46 1006.1
20260506113628 21 142 6.4 16.1 0.00 0.00 0.00 47 1006.1
20260506113128 21 80 9.7 24.1 0.00 0.00 0.00 48 1006.1
20260506112628 21 133 8.0 24.1 0.00 0.00 0.00 47 1006.3
20260506112126 22 127 6.4 17.7 0.00 0.00 0.00 45 1006.3
20260506111626 22 106 8.0 16.1 0.00 0.00 0.00 45 1006.4
20260506111126 22 83 6.4 16.1 0.00 0.00 0.00 46 1006.4
20260506110626 22 116 8.0 16.1 0.00 0.00 0.00 48 1006.5
20260506110129 21 136 9.7 17.7 0.00 0.00 0.00 47 1006.6
20260506105626 21 133 8.0 17.7 0.00 0.00 0.00 46 1006.7
20260506105125 21 105 6.4 17.7 0.00 0.00 0.00 45 1006.6
20260506104625 21 101 3.2 9.7 0.00 0.00 0.00 46 1006.6
20260506104125 21 131 1.6 9.7 0.00 0.00 0.00 46 1006.7
20260506103626 21 90 4.8 12.9 0.00 0.00 0.00 44 1006.8
20260506103130 21 122 8.0 17.7 0.00 0.00 0.00 45 1006.8
20260506102619 21 119 9.7 17.7 0.00 0.00 0.00 43 1006.8
20260506102118 21 109 9.7 16.1 0.00 0.00 0.00 46 1006.9
20260506101615 21 105 9.7 17.7 0.00 0.00 0.00 43 1006.9
20260506101114 21 124 6.4 17.7 0.00 0.00 0.00 42 1006.9
20260506100612 21 122 4.8 11.3 0.00 0.00 0.00 43 1007.0
20260506100110 21 200 4.8 11.3 0.00 0.00 0.00 49 1007.1
20260506095610 20 146 3.2 8.0 0.00 0.00 0.00 48 1007.1
20260506095109 20 40 4.8 8.0 0.00 0.00 0.00 49 1007.1
20260506094610 21 36 4.8 9.7 0.00 0.00 0.00 48 1007.3
20260506094109 20 11 4.8 9.7 0.00 0.00 0.00 52 1007.3
20260506093609 20 101 4.8 8.0 0.00 0.00 0.00 49 1007.4
20260506093108 20 165 4.8 14.5 0.00 0.00 0.00 50 1007.4
20260506092607 20 126 6.4 14.5 0.00 0.00 0.00 51 1007.4
20260506092104 21 171 6.4 11.3 0.00 0.00 0.00 50 1007.3
20260506091605 21 219 6.4 11.3 0.00 0.00 0.00 48 1007.5
20260506091103 21 227 6.4 12.9 0.00 0.00 0.00 47 1007.6
20260506090603 21 217 6.4 12.9 0.00 0.00 0.00 50 1007.7
20260506090109 21 244 6.4 17.7 0.00 0.00 0.00 48 1007.6
20260506085601 21 184 8.0 17.7 0.00 0.00 0.00 48 1007.5
20260506085103 21 169 6.4 16.1 0.00 0.00 0.00 50 1007.6
20260506084600 20 223 8.0 17.7 0.00 0.00 0.00 50 1007.6
20260506084053 20 124 9.7 17.7 0.00 0.00 0.00 52 1007.7
20260506083557 20 173 4.8 14.5 0.00 0.00 0.00 50 1007.7
20260506083051 20 180 3.2 14.5 0.00 0.00 0.00 53 1007.7
20260506082606 20 190 4.8 8.0 0.00 0.00 0.00 57 1007.8
20260506082047 19 124 3.2 8.0 0.00 0.00 0.00 56 1007.8
20260506081556 19 334 3.2 9.7 0.00 0.00 0.00 57 1007.8
20260506081049 18 253 4.8 11.3 0.00 0.00 0.00 59 1007.8
20260506080545 18 196 6.4 12.9 0.00 0.00 0.00 56 1007.7
20260506073040 17 320 3.2 9.7 0.00 0.00 0.00 63 1007.9
20260506072541 17 304 4.8 11.3 0.00 0.00 0.00 66 1007.9
20260506072041 17 261 4.8 11.3 0.00 0.00 0.00 68 1008.1
20260506071542 17 266 4.8 8.0 0.00 0.00 0.00 69 1008.1
20260506071032 17 268 4.8 8.0 0.00 0.00 0.00 68 1008.1
20260506070530 17 301 4.8 8.0 0.00 0.00 0.00 67 1008.1